Location: Albany
(35.0000°S, 118.0000°E)
Time: 17:25:06
(UTC-05:00)

JAS-1B - Visible Passes

Search period start: 29 January 2015 00:00
Search period end: 08 February 2015 00:00
Orbit: 911 x 1744 km, 99.1° (Epoch: 28 January)

Date Brightness Start Highest point End Pass type
(mag) Time Alt. Az. Time Alt. Az. Time Alt. Az.
29 Jan 8.7 09:54:57 20° SE 09:54:57 20° SE 09:58:39 10° SSE visible
29 Jan 8.4 11:47:13 28° SW 11:47:13 28° SW 11:50:20 10° SSW visible
30 Jan 8.4 10:14:16 28° SE 10:14:16 28° SE 10:18:18 10° S visible
30 Jan 8.8 12:06:31 21° SW 12:06:31 21° SW 12:08:57 10° SW visible
31 Jan 8.1 10:33:35 36° SSE 10:33:35 36° SSE 10:37:43 10° S visible
31 Jan 9.1 12:25:51 14° WSW 12:25:51 14° WSW 12:27:13 10° SW visible
01 Feb 8.0 10:52:54 41° S 10:52:54 41° S 10:56:58 10° S visible
02 Feb 9.2 09:19:59 11° ESE 09:20:05 11° ESE 09:21:53 10° SE visible
02 Feb 8.1 11:12:14 39° SSW 11:12:14 39° SSW 11:16:04 10° SSW visible
03 Feb 8.9 09:39:18 17° SE 09:39:18 17° SE 09:42:42 10° SSE visible
03 Feb 8.4 11:31:33 32° SW 11:31:33 32° SW 11:35:00 10° SSW visible
04 Feb 8.7 09:58:37 23° SE 09:58:37 23° SE 10:02:33 10° SSE visible
04 Feb 8.7 11:50:52 25° SW 11:50:52 25° SW 11:53:46 10° SSW visible
05 Feb 8.4 10:17:57 31° SE 10:17:57 31° SE 10:22:06 10° S visible
05 Feb 9.0 12:10:12 18° SW 12:10:12 18° SW 12:12:18 10° SW visible
06 Feb 8.2 10:37:16 37° SSE 10:37:16 37° SSE 10:41:27 10° S visible
06 Feb 9.3 12:29:31 13° WSW 12:29:31 13° WSW 12:30:26 10° SW visible
07 Feb 8.2 10:56:36 39° S 10:56:36 39° S 11:00:39 10° S visible
